Tracking 19792 objects as of 16-Jul-2019
HD Live streaming from Space Station
objects crossing your sky now

METEOR 2-5 DEB


METEOR 2-5 DEB is no longer on orbit


NORAD ID: 36910
Int'l Code: 1979-095BB
Perigee: N/A
Apogee: N/A
Inclination: N/A
Period: N/A
Semi major axis: N/A
RCS: N/A
Launch date: October 31, 1979
Source: Commonwealth of Independent States (former USSR) (CIS)
Launch site: PLESETSK MISSILE AND SPACE COMPLEX (PKMTR)
Decay date: 2015-09-19

Note: This is SATELLITE DEBRIS
aabbcc
Your satellite tracking list
Your tracking list is empty




NASA's NSSDC Master Catalog

Two Line Element Set (TLE):
1 36910U 79095BB  15074.12309087  .00085729  00000-0  60913-2 0  9998
2 36910  81.1854 222.1038 0013431 273.7681  86.2006 15.04212738409752
Source of the keplerian elements: AFSPC